User: anonymous   Login
Location: Melbourne
(37.8170°S, 144.9670°E)
Time: 19:27:38
(UTC+11:00)
Language:

ISS - Orbit

View from above orbital plane
View from above orbital plane
View from above satellite
View from above satellite

Ground track
Ground track

The orbit data is extracted from the following two-line orbital elements,

1 25544U 98067A   14356.22089925  .00021907  00000-0  35624-3 0  6074
2 25544 051.6478 247.0662 0007596 160.1998 342.4627 15.52582418920506
Epoch (UTC): 22 December 2014 05:18:05
Eccentricity: 0.0007596
inclination: 51.6478°
perigee height: 404 km
apogee height: 414 km
right ascension of ascending node: 247.0662°
argument of perigee: 160.1998°
revolutions per day: 15.52582418
mean anomaly at epoch: 342.4627°
orbit number at epoch: 92050

The dashed part of the orbit path shows where the satellite is in the earth's shadow,  

DLR